Weather History for Logan, UT

Change the Weather History Date:

Wednesday, February 20, 2013

  Actual Average Record
Temperature  
Mean Temperature 24 °F -  
Max Temperature 32 °F 40 °F 58 °F (1958)
Min Temperature 16 °F 21 °F -5 °F (1973)
Degree Days  
Heating Degree Days 41    
Moisture  
Dew Point 21 °F    
Average Humidity 82    
Maximum Humidity 93    
Minimum Humidity 59    
Precipitation  
Precipitation 0.00 in - - ()
Sea Level Pressure  
Sea Level Pressure 29.76 in    
Wind  
Wind Speed 6 mph (NNW)    
Max Wind Speed 20 mph    
Max Gust Speed -    
Visibility 6 miles    
Events Snow    
Averages and records for this station are not official NWS values.
T = Trace of Precipitation, MM = Missing Value Source: NWS Daily Summary

Daily Weather History Graph

Daily Weather History Graph

Search for Another Location

Airport:

Trip Planner

Search our weather history database for the weather conditions in past years. The results will help you decide how hot, cold, wet, or windy it might be!

Date:

Astronomy

Feb. 20, 2013 Rise Set
Actual Time 7:15 AM MST 6:07 PM MST
Civil Twilight 6:47 AM MST 6:35 PM MST
Nautical Twilight 6:14 AM MST 7:07 PM MST
Astronomical Twilight 5:42 AM MST 7:40 PM MST
Moon 1:29 PM MST (2/20) 3:41 AM MST (2/20)
Length of Visible Light 11h 48m
Length of Day
10h 51m
Waxing Gibbous, 76% of the Moon is Illuminated
Feb 20
Waxing Gibbous
Feb 25
Full
Mar 4
Last Quarter
Mar 11
New
Mar 19
First Quarter

Hourly Weather History & Observations

Time (MST) Temp. Windchill Dew Point Humidity Pressure Visibility Wind Dir Wind Speed Gust Speed Precip Events Conditions
12:51 AM 17.1 °F - 14.0 °F 88% 29.74 in 7.0 mi Calm Calm - N/A   Overcast
1:51 AM 18.0 °F 9.8 °F 14.0 °F 84% 29.74 in 7.0 mi East 5.8 mph - N/A   Mostly Cloudy
2:51 AM 21.0 °F - 15.1 °F 78% 29.71 in 7.0 mi Calm Calm - N/A   Overcast
3:51 AM 16.0 °F 10.4 °F 12.9 °F 88% 29.72 in 6.0 mi WNW 3.5 mph - N/A   Mostly Cloudy
4:51 AM 18.0 °F 11.1 °F 12.9 °F 81% 29.70 in 6.0 mi East 4.6 mph - N/A   Haze
5:51 AM 19.0 °F - 15.1 °F 85% 29.72 in 6.0 mi Calm Calm - N/A   Overcast
6:51 AM 18.0 °F 12.7 °F 15.1 °F 88% 29.73 in 5.0 mi West 3.5 mph - N/A   Overcast
7:51 AM 19.9 °F 14.9 °F 15.1 °F 81% 29.76 in 4.0 mi NNE 3.5 mph - N/A   Haze
8:51 AM 21.9 °F 15.7 °F 17.1 °F 82% 29.78 in 4.0 mi SSW 4.6 mph - N/A   Haze
9:51 AM 24.1 °F 18.2 °F 19.0 °F 81% 29.78 in 4.0 mi SW 4.6 mph - N/A   Haze
10:51 AM 26.1 °F - 19.0 °F 75% 29.77 in 6.0 mi Calm Calm - N/A   Haze
11:51 AM 28.0 °F 24.2 °F 19.0 °F 69% 29.75 in 7.0 mi WSW 3.5 mph - N/A   Overcast
12:51 PM 32.0 °F - 19.0 °F 59% 29.73 in 8.0 mi Calm Calm - N/A   Clear
1:51 PM 30.9 °F - 21.0 °F 67% 29.73 in 8.0 mi Calm Calm - N/A   Clear
2:51 PM 30.9 °F - 23.0 °F 72% 29.73 in 7.0 mi Calm Calm - N/A   Mostly Cloudy
3:51 PM 30.0 °F 25.2 °F 24.1 °F 79% 29.75 in 9.0 mi WNW 4.6 mph - N/A   Mostly Cloudy
4:51 PM 32.0 °F 22.5 °F 26.1 °F 79% 29.76 in 10.0 mi North 12.7 mph - N/A   Overcast
5:51 PM 30.0 °F 19.5 °F 25.0 °F 82% 29.78 in 10.0 mi North 13.8 mph - N/A   Overcast
6:37 PM 28.4 °F 15.4 °F 26.6 °F 93% 29.72 in 1.8 mi North 19.6 mph - 0.00 in Snow Light Snow
6:48 PM 28.4 °F 15.8 °F 26.6 °F 93% 29.73 in 2.0 mi North 18.4 mph - 0.00 in Snow Light Snow
6:51 PM 28.9 °F 16.5 °F 26.1 °F 89% 29.81 in 2.5 mi North 18.4 mph - 0.00 in Snow Light Snow
7:10 PM 28.4 °F 17.0 °F 26.6 °F 93% 29.74 in 2.5 mi North 15.0 mph - 0.00 in Snow Light Snow
7:15 PM 28.4 °F 16.6 °F 24.8 °F 86% 29.74 in 2.5 mi North 16.1 mph - 0.00 in Snow Light Snow
7:20 PM 28.4 °F 17.0 °F 24.8 °F 86% 29.74 in 3.0 mi North 15.0 mph - 0.00 in Snow Light Snow
7:33 PM 28.4 °F 16.6 °F 24.8 °F 86% 29.74 in 2.5 mi North 16.1 mph - 0.00 in Snow Light Snow
8:01 PM 28.4 °F 17.0 °F 24.8 °F 86% 29.75 in 1.8 mi North 15.0 mph - 0.00 in Snow Light Snow
8:40 PM 28.4 °F 19.1 °F 24.8 °F 86% 29.76 in 1.5 mi NNW 10.4 mph - 0.00 in Snow Light Snow
8:51 PM 28.0 °F 18.6 °F 25.0 °F 88% 29.84 in 2.0 mi North 10.4 mph - 0.00 in Snow Light Snow
9:01 PM 28.4 °F 18.5 °F 24.8 °F 86% 29.77 in 1.8 mi North 11.5 mph - 0.00 in Snow Light Snow
9:13 PM 28.4 °F 19.1 °F 24.8 °F 86% 29.77 in 2.0 mi NNW 10.4 mph - 0.00 in Snow Light Snow
9:21 PM 28.4 °F 19.7 °F 24.8 °F 86% 29.77 in 5.0 mi North 9.2 mph - 0.00 in Snow Light Snow
9:33 PM 28.4 °F 20.4 °F 24.8 °F 86% 29.77 in 9.0 mi North 8.1 mph - 0.00 in   Overcast
9:51 PM 28.0 °F 21.7 °F 23.0 °F 81% 29.85 in 8.0 mi NW 5.8 mph - 0.00 in   Overcast
10:03 PM 28.4 °F 20.4 °F 21.2 °F 74% 29.78 in 10.0 mi NW 8.1 mph - N/A   Overcast
10:51 PM 26.1 °F 16.2 °F 21.0 °F 81% 29.86 in 10.0 mi NNW 10.4 mph - N/A   Overcast
11:51 PM 28.0 °F 17.5 °F 21.0 °F 75% 29.85 in 10.0 mi NNW 12.7 mph - N/A   Overcast